Location: Coed Ely
(51.5661°N, 3.4150°W)
Time: 19:53:45
(UTC+00:00)

X-37B - Pass Details

Date: 28 January 2021
Orbit: 383 x 391 km, 45.0° (Epoch: 27 February)

Event Time Altitude Azimuth Distance (km) Brightness Sun altitude
Rises 19:19:06 0° 262° (W) 2,275 6.0 -22.1°
Reaches altitude 10° 19:21:57 10° 234° (SW) 1,419 4.2 -22.5°
Maximum altitude 19:23:35 13° 203° (SSW) 1,236 3.4 -22.8°
Enters shadow 19:23:54 13° 197° (SSW) 1,243 3.3 -22.8°
